KB9QJM Weather Reports


Display with metric or nautical units.
time (UTC)temp
F
wind
direction
speed
MPH
gust
MPH
rain 1hr
in
rain 24hr
in
rain mn
in
humidity
%
barometer
mb
20260905181558 93 149 5.0 10.0 0.00 0.00 0.00 61 1013.9
20260905174555 91 151 6.0 11.0 0.00 0.00 0.00 63 1014.2
20260905173057 90 156 1.0 9.0 0.00 0.00 0.00 66 1014.4
20260905171554 89 113 5.0 10.0 0.00 0.00 0.00 65 1014.6
20260905164558 88 146 8.0 12.0 0.00 0.00 0.00 67 1015.1
20260905163108 87 123 8.0 12.0 0.00 0.00 0.00 69 1015.1
20260905161600 87 176 7.0 12.0 0.00 0.00 0.00 70 1015.0
20260905160100 86 163 10.0 14.0 0.00 0.00 0.00 71 1015.3
20260905154554 85 94 9.0 14.0 0.00 0.00 0.00 71 1015.5
20260905153111 85 138 10.0 13.0 0.00 0.00 0.00 72 1015.3
20260905151608 84 71 11.0 16.0 0.00 0.00 0.00 75 1015.6
20260905150058 84 98 11.0 16.0 0.00 0.00 0.00 77 1015.4
20260905144554 83 107 8.0 14.0 0.00 0.00 0.00 78 1015.3
20260905143105 83 104 12.0 19.0 0.00 0.00 0.00 79 1015.4
20260905141621 83 94 14.0 20.0 0.00 0.00 0.00 78 1015.2
20260905140106 83 80 9.0 15.0 0.00 0.00 0.00 78 1015.4
20260905134552 81 100 3.0 11.0 0.00 0.00 0.00 82 1015.5
20260905133059 80 80 9.0 15.0 0.00 0.00 0.00 84 1015.5
20260905131616 80 151 1.0 3.0 0.00 0.00 0.00 89 1014.9
20260905130057 78 49 1.0 3.0 0.00 0.00 0.00 93 1015.1
20260905124550 77 67 1.0 4.0 0.00 0.00 0.00 94 1014.9
20260905123106 76 0 0.0 2.0 0.00 0.00 0.00 95 1015.0
20260905121555 75 165 1.0 2.0 0.00 0.00 0.00 96 1014.7
20260905120105 74 0 0.0 3.0 0.00 0.00 0.00 96 1014.9
20260905114558 73 10 1.0 2.0 0.00 0.00 0.00 96 1014.6
20260905113054 73 0 0.0 2.0 0.00 0.00 0.00 95 1014.5
20260905111550 74 0 0.0 2.0 0.00 0.00 0.00 96 1014.5
20260905110106 74 15 1.0 3.0 0.00 0.00 0.00 95 1014.2
20260905104558 74 134 1.0 3.0 0.00 0.00 0.00 95 1014.1
20260905103053 74 0 0.0 2.0 0.00 0.00 0.00 95 1014.3
20260905101553 74 185 1.0 3.0 0.00 0.00 0.00 95 1014.5
20260905100121 74 185 2.0 3.0 0.00 0.00 0.00 95 1014.4
20260905094552 75 133 1.0 2.0 0.00 0.00 0.00 95 1014.3
20260905093054 75 85 1.0 2.0 0.00 0.00 0.00 95 1014.3
20260905091601 75 107 0.0 2.0 0.00 0.00 0.00 94 1014.4
20260905090135 75 0 0.0 0.0 0.00 0.00 0.00 93 1014.2
20260905084554 76 0 0.0 0.0 0.00 0.00 0.00 92 1014.0
20260905083054 76 0 0.0 0.0 0.00 0.00 0.00 93 1013.9
20260905081605 76 0 0.0 1.0 0.00 0.00 0.00 93 1013.8
20260905080056 76 192 3.0 4.0 0.00 0.00 0.00 93 1013.6
20260905074607 76 192 2.0 4.0 0.00 0.00 0.00 94 1013.5
20260905073100 76 103 1.0 2.0 0.00 0.00 0.00 94 1013.8
20260905071555 76 0 0.0 2.0 0.00 0.00 0.00 94 1014.1
20260905070059 76 0 0.0 0.0 0.00 0.00 0.00 93 1014.2
20260905064553 77 0 0.0 0.0 0.00 0.00 0.00 93 1014.3
20260905063058 77 0 0.0 1.0 0.00 0.00 0.00 93 1014.3
20260905061557 77 0 0.0 0.0 0.00 0.00 0.00 93 1014.3
20260905060055 78 0 0.0 2.0 0.00 0.00 0.00 93 1014.3
20260905054603 77 103 1.0 3.0 0.00 0.00 0.00 93 1014.4
20260905053102 77 0 0.0 0.0 0.00 0.00 0.00 92 1014.6
20260905051611 77 0 0.0 0.0 0.00 0.00 0.00 92 1014.8
20260905050107 77 0 0.0 0.0 0.00 0.00 0.00 91 1014.9
20260905044603 77 0 0.0 0.0 0.00 0.00 0.00 91 1014.9
20260905043059 77 0 0.0 2.0 0.00 0.00 0.00 91 1014.9
20260905041557 77 0 0.0 0.0 0.00 0.00 0.00 90 1014.7
20260905040105 77 352 0.0 2.0 0.00 0.00 0.00 90 1014.9
20260905034557 78 0 0.0 2.0 0.00 0.00 0.00 91 1014.9
20260905033110 78 360 1.0 3.0 0.00 0.00 0.00 91 1015.0
20260905031622 79 0 0.0 1.0 0.00 0.00 0.00 90 1014.9
20260905030058 79 171 1.0 4.0 0.00 0.00 0.00 91 1014.6
20260905024602 80 0 0.0 0.0 0.00 0.00 0.00 89 1014.9
20260905023053 81 0 0.0 0.0 0.00 0.00 0.00 88 1014.9
20260905021553 81 0 0.0 0.0 0.00 0.00 0.00 84 1014.9
20260905020100 82 0 0.0 0.0 0.00 0.00 0.00 83 1014.7
20260905014554 82 0 0.0 0.0 0.00 0.00 0.00 82 1014.7
20260905013058 82 171 1.0 4.0 0.00 0.00 0.00 82 1014.4
20260905011556 83 0 0.0 2.0 0.00 0.00 0.00 81 1014.3
20260905010105 85 123 1.0 2.0 0.00 0.00 0.00 81 1014.3
20260905004554 86 113 1.0 2.0 0.00 0.00 0.00 78 1014.4
20260905003058 88 140 1.0 2.0 0.00 0.00 0.00 73 1014.2
20260905001557 90 0 0.0 0.0 0.00 0.00 0.00 69 1014.2
20260904234553 94 0 0.0 0.0 0.00 0.00 0.00 55 1014.2
20260904233100 94 164 1.0 4.0 0.00 0.00 0.00 59 1014.2
20260904231559 99 177 0.0 3.0 0.00 0.00 0.00 53 1014.2
20260904230107 99 0 0.0 4.0 0.00 0.00 0.00 47 1014.3
20260904224553 99 325 1.0 5.0 0.00 0.00 0.00 47 1014.2
20260904223106 97 0 0.0 4.0 0.00 0.00 0.00 50 1014.2
20260904221557 97 221 1.0 5.0 0.00 0.00 0.00 49 1014.2
20260904220117 98 178 2.0 5.0 0.00 0.00 0.00 49 1014.2
20260904214600 99 236 2.0 7.0 0.00 0.00 0.00 45 1014.5
20260904213056 98 248 5.0 9.0 0.00 0.00 0.00 46 1014.5
20260904211553 99 277 3.0 8.0 0.00 0.00 0.00 46 1014.6
20260904210104 99 321 3.0 8.0 0.00 0.00 0.00 47 1014.7
20260904204556 99 123 1.0 9.0 0.00 0.00 0.00 48 1014.7
20260904203057 98 0 2.0 7.0 0.00 0.00 0.00 47 1015.0
20260904201555 99 268 5.0 9.0 0.00 0.00 0.00 46 1015.3
20260904200100 98 0 1.0 14.0 0.00 0.00 0.00 48 1015.4
20260904194557 99 298 7.0 11.0 0.00 0.00 0.00 45 1015.5
20260904193055 99 320 2.0 12.0 0.00 0.00 0.00 44 1015.7
20260904191554 100 0 3.0 10.0 0.00 0.00 0.00 45 1016.1
20260904190057 99 0 1.0 8.0 0.00 0.00 0.00 45 1016.1
20260904184614 99 297 6.0 11.0 0.00 0.00 0.00 46 1016.4
20260904183054 98 285 1.0 9.0 0.00 0.00 0.00 51 1016.6